User: anonymous   Login
Location: Unspecified
(0.0000°N, 0.0000°E)
Time: 04:36:46
(UTC+00:00)
Language:

CP4 - Orbit

View from above orbital plane
View from above orbital plane
View from above satellite
View from above satellite

Ground track
Ground track

The orbit data is extracted from the following two-line orbital elements,

1 31132U 07012Q   17324.40629101  .00000255  00000-0  61889-4 0  9998
2 31132  98.0510 275.2433 0081196  11.7409 348.5659 14.58901104563229
Epoch (UTC): 20 November 2017 09:45:03
Eccentricity: 0.0081196
inclination: 98.0510°
perigee height: 639 km
apogee height: 754 km
right ascension of ascending node: 275.2433°
argument of perigee: 11.7409°
revolutions per day: 14.58901104
mean anomaly at epoch: 348.5659°
orbit number at epoch: 56322

The dashed part of the orbit path shows where the satellite is in the earth's shadow,  

DLR